Location: Starry Hill Observatory
(46.8582°N, 122.3590°W)
Time: 01:20:47
(UTC-07:00)

Daily predictions for brighter satellites

Satellite Brightness Start Highest point End
(mag) Time Altitude Azimuth Time Altitude Azimuth Time Altitude Azimuth
SL-16 R/B 2.8 00:00:19 10° NNW 00:05:51 49° ENE 00:08:36 28° ESE
CZ-2C R/B 4.1 00:03:27 25° SW 00:05:55 39° W 00:11:10 10° NNW
USA 234 4.4 00:05:44 10° NE 00:11:52 44° NNW 00:18:01 10° W
Cosmos 1707 3.8 00:12:25 32° E 00:12:25 32° E 00:15:55 10° NNE
NOSS 0 Rocket 4.3 00:06:27 10° NW 00:12:29 52° WSW 00:14:46 35° SSW
Cosmos 1812 Rocket 3.9 00:10:49 10° N 00:15:06 52° ENE 00:15:52 46° ESE
Cosmos 1980 3.9 00:09:49 10° NNW 00:15:24 61° WSW 00:17:10 41° S
SL-19 R/B 4.4 00:09:15 10° NNE 00:15:27 71° ESE 00:17:41 40° S
Cosmos 1626 Rocket 3.6 00:15:12 55° SE 00:15:53 64° E 00:20:18 10° NNE
Cosmos 1602 Rocket 3.6 00:17:56 54° SE 00:18:31 60° E 00:22:53 10° NNE
Cosmos 1655 Rocket 4.2 00:13:53 10° NNW 00:20:12 64° W 00:22:56 35° SSW
Cosmos 2279 Rocket 4.2 00:19:19 30° SSW 00:22:29 65° WNW 00:28:41 10° N
Cosmos 1538 Rocket 4.0 00:20:39 37° SSW 00:22:43 78° WNW 00:28:01 10° NNE
CZ-4 R/B 3.9 00:18:15 10° NNE 00:23:19 89° E 00:24:48 47° SSW
Cosmos 2297 Rocket 2.1 00:23:15 43° S 00:25:11 76° ESE 00:30:52 10° NNE
Cosmos 2227 Rocket 2.1 00:26:26 39° SSW 00:28:41 89° ESE 00:34:23 10° NNE
Cosmos 923 Rocket 4.2 00:28:29 47° SSE 00:29:34 57° ESE 00:34:43 10° NNE
Cosmos 1680 Rocket 3.9 00:29:45 41° SE 00:30:34 45° ESE 00:35:32 10° NNE
Cosmos 1378 3.0 00:32:07 79° E 00:32:07 79° E 00:35:53 10° NNE
ADEOS Rocket 3.1 00:26:55 10° NNE 00:32:20 50° E 00:33:42 41° SE
Cosmos 2237 Rocket 2.7 00:27:40 10° NW 00:33:08 48° WSW 00:34:40 38° SSW
ERBS 2.7 00:30:31 10° NW 00:33:21 59° NW 00:33:21 59° NW
CZ-4B R/B 3.6 00:34:14 10° NNE 00:39:17 63° ESE 00:40:27 49° SSE
Mayak -1.4 00:36:08 10° NNE 00:40:24 81° ESE 00:40:52 69° SSE
H-2A R/B 2.0 00:41:10 63° SE 00:41:48 81° ENE 00:46:04 10° NNW
Cosmos 2082 3.6 00:40:28 42° SSW 00:42:32 87° ESE 00:48:18 10° NNE
Cosmos 2084 Rocket 4.2 00:41:39 10° NW 00:44:45 35° W 00:44:45 35° W
COBE Rocket 4.4 00:41:10 10° N 00:45:43 50° WNW 00:47:22 34° SW
Cosmos 2266 Rocket 4.3 00:53:36 10° NNW 00:59:50 61° W 01:02:11 38° SSW
USA 229 DEB 4.0 01:01:06 39° SSE 01:02:53 47° ESE 01:09:28 10° NE
USA 229 4.0 01:01:13 39° SSE 01:03:00 47° ESE 01:09:33 10° NE
Cosmos 1400 Rocket 2.8 01:05:13 66° ESE 01:05:26 68° E 01:09:34 10° NNE
Cosmos 1825 Rocket 3.5 01:09:03 65° SSE 01:09:35 76° E 01:14:03 10° NNE
COSMOS 2455 3.5 01:17:02 21° WSW 01:20:58 51° NW 01:26:53 10° NNE
Cosmos 1470 4.4 01:18:31 10° NW 01:21:36 23° W 01:21:39 23° W
JB-3 4.3 01:17:39 10° N 01:21:50 84° WNW 01:22:13 72° SSW
Cosmos 1238 Rocket 2.9 01:23:19 66° SSW 01:23:56 88° W 01:27:55 10° N
ISS -2.1 01:31:17 10° WNW 01:32:54 26° WNW 01:32:54 26° WNW
Cosmos 1818 4.2 01:35:10 25° WSW 01:38:06 53° NW 01:43:29 10° NNE
ALOS 2 4.2 01:38:29 21° W 01:38:45 21° W 01:42:08 10° NW
Cosmos 1315 Rocket 2.6 01:39:47 74° SE 01:40:00 77° E 01:43:58 10° NNE
Cosmos 1908 3.3 01:37:55 10° N 01:41:45 64° E 01:42:05 60° ESE
Meteor 1-24 Rocket 3.7 01:39:50 45° S 01:41:45 85° E 01:47:43 10° NNE
Cosmos 1417 Rocket 4.5 01:39:33 41° S 01:42:00 85° E 01:48:25 10° N
Cosmos 1842 Rocket 4.4 01:40:00 10° N 01:44:12 43° ENE 01:45:35 32° ESE
Cosmos 1371 Rocket 4.3 01:42:15 10° NNW 01:47:21 50° WSW 01:48:18 44° SW
Cosmos 1437 3.2 01:45:07 10° N 01:47:54 57° NE 01:47:54 57° NE
Cosmos 1943 3.6 01:42:46 10° NNW 01:48:27 62° ENE 01:52:03 23° SE
Cosmos 1726 2.6 01:45:21 10° N 01:48:57 51° ENE 01:49:23 48° ESE
Meteor 2-5 Rocket 4.1 01:47:09 37° SW 01:49:21 59° WNW 01:55:12 10° N
Cosmos 1300 4.5 01:46:13 10° NNE 01:49:28 26° ENE 01:50:56 20° ESE
SL-16 R/B 3.2 01:44:54 10° NW 01:49:42 29° WSW 01:50:27 28° WSW
Cosmos 2263 Rocket 3.1 01:48:02 29° SE 01:49:45 35° ESE 01:54:53 10° NE
deb Chang Zheng 4 4.4 01:47:40 10° N 01:51:45 41° WNW 01:52:49 35° WSW
SL-16 R/B 4.1 01:47:30 10° ESE 01:52:45 30° ENE 01:58:00 10° N
Cosmos 1745 Rocket 4.0 01:47:31 10° N 01:53:55 87° E 01:56:46 36° S
Cosmos 1346 Rocket 2.5 01:52:04 10° NNW 01:55:56 89° W 01:56:14 75° S
CZ-4C R/B 3.0 01:56:44 69° ENE 01:56:44 69° ENE 02:00:04 10° N
Cosmos 1953 Rocket 4.0 01:57:53 42° WSW 01:58:39 47° WNW 02:02:52 10° N
Cosmos 1452 Rocket 3.6 01:56:47 10° NNW 02:02:06 73° ENE 02:04:41 31° SE
Cosmos-2242 3.4 01:57:59 10° NNW 02:02:06 46° W 02:02:33 44° WSW
Cosmos 2056 Rocket 3.8 01:59:21 10° NNW 02:04:12 44° WSW 02:05:04 41° SW
Cosmos 2297 Rocket 4.1 02:05:28 10° W 02:09:53 23° NW 02:14:18 10° N
S3M 4.0 02:10:34 37° SSW 02:13:09 74° W 02:19:28 10° N
Landsat 5 3.5 02:12:22 45° SE 02:13:31 73° ENE 02:17:31 10° N
Cosmos 2227 Rocket 4.3 02:09:26 10° W 02:13:32 20° NW 02:17:40 10° N
Mayak 1.3 02:13:36 10° NW 02:15:24 12° WNW 02:17:11 10° W
ADEOS Rocket 4.3 02:13:06 10° N 02:17:35 26° WNW 02:20:40 16° WSW
H-2A R/B 4.4 02:18:16 11° W 02:18:19 11° W 02:19:30 10° WNW
Cosmos 1603 4.0 02:16:07 10° NW 02:21:32 47° WSW 02:23:06 37° SSW
CZ-4B R/B 1.4 02:22:48 62° SE 02:23:16 77° ENE 02:26:40 10° N
SL-14 R/B 3.6 02:26:14 43° SE 02:27:09 55° E 02:30:56 10° NNE
Meteor 2-13 Rocket 4.5 02:22:46 10° NNW 02:28:45 63° W 02:31:23 34° SSW
Cosmos 1420 Rocket 3.9 02:25:16 10° NNW 02:30:30 76° WSW 02:32:50 33° S
Cosmos 1709 Rocket 4.0 02:24:22 10° N 02:30:49 85° E 02:34:38 26° S
Cosmos 1607 4.5 02:24:45 10° NNW 02:31:10 62° NE 02:37:25 10° SE
Cosmos 1626 3.5 02:31:42 24° SE 02:33:00 31° E 02:36:21 10° NNE
NOSS 3-1 (C) 3.4 02:30:57 32° SW 02:33:50 84° NW 02:40:27 10° NE
Cosmos 1674 3.6 02:36:30 33° W 02:37:03 34° WNW 02:40:31 10° N
Cosmos 1076 Rocket 4.3 02:36:13 27° SSE 02:38:07 44° E 02:42:14 10° NNE
SeaSat 1 3.6 02:33:55 10° ESE 02:38:34 43° NE 02:43:14 10° NNW
Cosmos 1689 Rocket 2.0 02:39:15 76° SW 02:39:22 79° WSW 02:42:31 10° NNW
Spot 2 4.4 02:35:58 10° NNE 02:41:06 89° ESE 02:43:11 36° SSW
BREEZE-M R/B 4.2 02:35:55 10° WNW 02:41:37 78° SSW 02:50:11 10° ESE
BREEZE-M DEB (TANK) 3.7 02:43:19 34° SSE 02:43:47 36° SSE 02:47:05 10° E
Cosmos 2285 Rocket 4.1 02:41:11 29° S 02:44:35 73° ESE 02:50:56 10° NNE
Cosmos 1340 2.7 02:44:19 10° NNW 02:48:02 57° W 02:48:43 48° SW
CZ-2D R/B 3.0 02:44:11 10° NNE 02:49:07 41° E 02:52:27 19° SSE
Cosmos 2221 2.5 02:45:17 10° NNW 02:49:41 76° W 02:51:24 36° S
Genesis I 3.5 02:48:46 41° S 02:49:48 56° ESE 02:53:46 10° NE
SL-08 R/B 3.7 02:49:43 17° SSE 02:53:29 68° ENE 02:58:23 10° N
USA 229 DEB 4.4 02:48:30 15° WSW 02:53:53 48° NW 03:00:39 10° NE
USA 229 4.4 02:48:37 15° WSW 02:53:59 48° NW 03:00:45 10° NE
NOSS 3-1 (A) 3.4 02:51:30 29° SW 02:54:41 86° NW 03:01:20 10° NE
ARIANE 5 R/B 3.9 02:53:36 10° NNE 02:58:05 31° E 03:02:04 12° SSE
Meteor 1-21 Rocket 4.4 02:55:42 29° SSW 02:58:45 66° WNW 03:04:41 10° N
USA 267 4.2 02:54:54 10° ENE 03:00:47 35° SE 03:04:26 20° S
Resurs 1-4 Rocket 2.4 03:01:59 10° NNE 03:07:16 61° ESE 03:10:49 21° S
Meteor 2-19 Rocket 4.4 03:05:17 10° NNW 03:11:21 74° W 03:15:45 20° S
BREEZE-M DEB (TANK) 2.2 03:12:33 30° WNW 03:13:23 51° N 03:15:45 10° ENE
PSLV R/B 4.4 03:09:51 12° SSE 03:13:37 60° ENE 03:17:47 10° N
Cosmos 1844 Rocket 3.7 03:10:41 16° SSE 03:14:45 38° ESE 03:19:56 10° NE
IRS-P3 4.1 03:10:06 10° NNE 03:15:28 88° ESE 03:18:52 23° SSW
Aureole 1 Rocket 3.1 03:16:00 30° W 03:16:48 35° WNW 03:19:35 10° N
NPP 3.6 03:13:12 10° NNE 03:18:38 81° WNW 03:22:03 23° SSW
DELTA 2 R/B (1) 4.3 03:17:20 22° WSW 03:19:54 31° SSW 03:24:48 10° SE
Cosmos 1703 3.7 03:18:10 21° SSE 03:20:36 58° E 03:24:30 10° NNE
MOZ.5/SAFIR/RUBIN 5/SL-8 3.9 03:16:21 12° SSE 03:20:50 78° ENE 03:25:37 10° N
Cosmos 921 Rocket 2.9 03:19:14 10° NNW 03:23:31 68° WSW 03:26:38 18° S
Cosmos 1726 4.3 03:22:20 10° WNW 03:23:45 12° W 03:23:56 12° W
Cosmos 1300 4.0 03:21:55 10° NW 03:25:04 25° W 03:25:53 23° WSW
Cosmos 1766 Rocket 3.7 03:22:21 21° S 03:25:10 73° E 03:29:33 10° NNE
ADEOS II 4.1 03:22:30 10° NE 03:26:37 23° E 03:30:41 10° SE
Cosmos 2228 Rocket 4.4 03:23:58 10° N 03:28:20 41° ENE 03:32:38 10° SE
GEOS 3 Rocket 4.0 03:26:41 10° NNE 03:31:57 58° NW 03:35:54 17° WSW
Cosmos 1943 4.4 03:27:41 10° NW 03:32:01 23° W 03:33:48 20° SW
Cosmos 2263 Rocket 3.0 03:29:43 18° WSW 03:33:36 42° NW 03:39:00 10° NNE
Cosmos 1455 2.1 03:31:33 10° N 03:35:21 88° W 03:38:17 16° S
Cosmos 1331 Rocket 3.9 03:30:42 10° NNW 03:35:52 78° WSW 03:41:01 10° SSE
SL-16 R/B 2.7 03:31:01 15° S 03:36:04 55° W 03:42:10 10° NNW
USA 234 4.1 03:30:01 10° E 03:36:20 55° NNE 03:42:42 10° NW
H-2A R/B 2.7 03:32:43 10° N 03:37:11 66° WNW 03:39:58 22° SSW
Cosmos 1515 Rocket 4.3 03:35:06 10° N 03:39:22 52° ENE 03:43:36 10° SSE
Cosmos 1269 Rocket 4.2 03:36:56 21° SW 03:40:28 63° WNW 03:45:46 10° NNE
Cosmos 1302 Rocket 4.4 03:35:34 10° NNW 03:40:53 68° ENE 03:46:09 10° SSE
Meteor 1-11 4.2 03:38:50 17° SSW 03:43:12 82° W 03:48:54 10° N
Helios 1A Rocket 3.9 03:41:45 10° NNE 03:45:40 42° E 03:49:31 10° S
NOSS 2-3 (D) 3.9 03:45:26 20° SW 03:48:44 88° ESE 03:54:16 10° NE
Cosmos 1809 Rocket 4.4 03:42:56 10° N 03:49:04 81° W 03:55:08 10° S
Cosmos 2058 3.0 03:47:11 14° S 03:50:44 78° E 03:54:58 10° NNE
Cosmos 1151 Rocket 3.3 03:46:43 10° N 03:51:07 68° E 03:55:26 10° SSE
Cosmos 1408 Rocket 3.5 03:48:36 18° SSW 03:51:49 72° W 03:56:12 10° N
TELKOM 3 4.4 03:50:47 10° WNW 03:53:25 38° N 03:55:34 10° ENE
Cosmos 2251 Rocket 4.1 03:48:51 11° S 03:53:52 56° ESE 03:59:07 10° NNE
COSMOS 2406 3.3 03:49:10 10° NNW 03:55:00 84° ENE 04:00:47 10° SSE
Geosat 4.1 03:51:37 10° NNE 03:56:41 77° ESE 04:01:01 14° SSW
ADEOS 4.1 03:53:18 10° NNE 03:58:28 58° ESE 04:03:36 10° S
CZ-2D R/B 4.0 03:55:27 10° NNE 03:59:52 62° E 04:04:15 10° S
SAR-Lupe-2 3.5 03:57:27 10° S 04:00:59 68° WSW 04:04:34 10° NNW
CRYOSAT 2 4.4 03:58:17 10° S 04:03:03 64° W 04:07:56 10° N
BREEZE-M TANK 3.7 04:05:20 14° SSW 04:07:38 21° SSE 04:09:50 10° ESE
Cosmos 1626 3.9 04:06:19 13° WSW 04:08:24 20° WNW 04:11:12 10° NNW
Timation 1 Rocket 4.5 04:02:58 12° SSW 04:08:30 76° ESE 04:14:28 10° NNE
Cosmos 2082 Rocket 4.4 04:03:56 10° NNW 04:08:58 30° NE 04:13:58 10° ESE
NOSS 2-3 (E) 4.2 04:05:30 14° SW 04:09:28 64° NW 04:15:05 10° NE
SeaSat 1 3.2 04:11:48 10° S 04:16:11 31° WSW 04:20:34 10° NW
Spot 4 Rocket 4.3 04:11:12 10° N 04:16:14 56° WNW 04:21:06 11° SSW
ATLAS 2AS CENTAUR R/B 3.5 04:10:21 10° SSW 04:17:59 58° ESE 04:25:55 10° NE
Nadezhda 1 Rocket 4.2 04:14:34 10° SSW 04:20:37 57° WNW 04:26:53 10° N
Cosmos 1743 Rocket 3.6 04:18:48 10° SSW 04:23:05 68° W 04:27:26 10° N
Cosmos 2151 3.2 04:20:39 10° SSW 04:24:51 55° WNW 04:29:07 10° N
Cosmos 2154 Rocket 4.2 04:18:50 10° NNW 04:25:00 58° W 04:31:10 10° S
Cosmos 405 Rocket 2.6 04:23:43 10° NNW 04:27:34 70° W 04:31:19 10° S
CZ-2D R/B 3.2 04:24:34 10° N 04:29:03 30° WNW 04:33:31 10° WSW
Cosmos 1992 Rocket 4.4 04:28:42 10° NNW 04:33:55 69° ENE 04:39:06 10° SSE
Cosmos 2098 Rocket 4.4 04:29:20 10° N 04:35:22 74° E 04:42:33 10° SSE
ARIANE 5 R/B 3.3 04:32:35 10° N 04:37:16 38° WNW 04:41:53 10° SW
Cosmos 1805 Rocket 4.5 04:33:19 10° SSE 04:37:29 49° E 04:41:40 10° NNE
Cosmos 1295 Rocket 4.5 04:32:29 10° NNW 04:38:32 68° W 04:44:35 10° S
Cosmos 220 Rocket 4.1 04:38:10 10° SSW 04:42:30 66° WNW 04:46:47 10° NNE
USA 267 3.4 04:37:37 10° NE 04:44:12 81° NW 04:50:44 10° WSW
Meteor 2-10 Rocket 3.6 04:40:28 10° NNW 04:45:24 53° W 04:50:15 10° S
Resurs 1-4 Rocket 3.6 04:42:40 10° N 04:46:40 22° WNW 04:50:41 10° WSW
BREEZE M DEB (TANK) 2.1 04:41:58 10° WSW 04:47:44 87° SSE 04:50:07 10° ENE
Cosmos 1441 Rocket 4.1 04:47:01 10° NNW 04:50:34 31° W 04:54:04 10° SSW
Cosmos 2218 Rocket 4.1 04:45:24 10° N 04:51:38 88° E 04:57:47 10° S
